Regional Weather Roundup
Issued by NWS

Home | Current Version | Previous Version | Graphics & Text | Print | Product List | Glossary On
Versions: 1 2 3 4 5 6 7 8 9 10 11 12 13 14 15 16 17 18 19 20 21 22 23 24 25 26 27 28 29 30 31 32 33 34 35 36 37 38 39 40 41 42 43 44 45 46 47 48 49 50
000
ASUS43 KLOT 181906
RWRIL

ILLINOIS REGIONAL WEATHER ROUNDUP
NATIONAL WEATHER SERVICE CHICAGO/ROMEOVILLE IL
200 PM CDT FRI APR 18 2014

NOTE: "FAIR" INDICATES FEW OR NO CLOUDS BELOW 12,000 FEET WITH NO
SIGNIFICANT WEATHER AND/OR OBSTRUCTIONS TO VISIBILITY.

* THESE STATIONS ARE NOT UNDER NWS QUALITY CONTROL. THEY ALSO MAY NOT
  REPORT WEATHER SUCH AS PRECIPITATION OR FOG.

ILZ001-002-007-009-015-016-024-182000-
NORTHWEST ILLINOIS

CITY           SKY/WX    TMP DP  RH WIND       PRES   REMARKS
MOLINE         SUNNY     59  29  31 VRB3      30.32F
STERLING*      SUNNY     57  36  44 E8        30.32F
SAVANNA*       SUNNY     56  32  39 W6        30.32F
$$

ILZ003-004-008-010-011-017-018-182000-
NORTH CENTRAL ILLINOIS

CITY           SKY/WX    TMP DP  RH WIND       PRES   REMARKS
ROCKFORD       MOSUNNY   56  30  37 CALM      30.34F
FREEPORT*      SUNNY     55  30  37 N6        30.35F
ROCHELLE*      SUNNY     61  30  31 CALM      30.32F
DE KALB*       SUNNY     56  32  41 N3        30.33F
$$

ILZ005-006-012>014-019>023-182000-
NORTHEAST ILLINOIS

CITY           SKY/WX    TMP DP  RH WIND       PRES   REMARKS
CHICAGO-OHARE  MOSUNNY   50  33  52 NE9       30.35S
CHICAGO-MIDWAY MOSUNNY   49  36  61 NE9       30.36S
AURORA         SUNNY     59  35  40 VRB6      30.32F
LANSING*       SUNNY     47  35  61 N10       30.36S
WAUKEGAN       SUNNY     43  31  62 N9        30.36S
DUPAGE AIRPORT SUNNY     59  36  42 NE6       30.32S
KANKAKEE*      SUNNY     61  39  44 N8        30.32S
WHEELING       SUNNY     47  33  58 E8        30.37S
MORRIS*        SUNNY     61  29  29 NE5       30.32S
NORTHERLY ISL    N/A     43  34  70 NE14        N/A
$$

LMZ740>746-182000-
SOUTHERN LAKE MICHIGAN

STATION/POSITION SKY/WX   TEMP    WIND        PRES    VSBY  WAVE
                          AIR SEA DIR/SP/G                  HT/PER
                          (F)     (DEG/KT/KT) (MB)    (MI)  (FT/S)
WAUKEGAN HARBOR            37      30/ 14/ 18 1029.5R
HARRISON CRIB              37      10/ 14/ 16   N/A
BURNHAM HARBOR             42      50/ 10/ 15   N/A
CALUMET HARBOR             40      10/ 11/ 14 1029.1S
MICHIGAN CITY              40     350/  8/ 10   N/A
$$

ILZ025>027-034>036-040-047-049-050-058-095>099-182000-
WEST-CENTRAL ILLINOIS

CITY           SKY/WX    TMP DP  RH WIND       PRES   REMARKS
QUINCY         SUNNY     61  35  37 VRB3      30.30F
GALESBURG*     SUNNY     60  34  37 SE3       30.32F
MACOMB*        SUNNY     60  31  33 S6        30.33F
JACKSONVILLE*  SUNNY     65  36  34 CALM      30.31F
PITTSFIELD*    SUNNY     64  39  40 CALM      30.31F
$$

ILZ028>032-037-038-041>044-048-051>054-059>061-182000-
CENTRAL ILLINOIS

CITY           SKY/WX    TMP DP  RH WIND       PRES   REMARKS
PONTIAC        SUNNY     63  28  27 W6        30.31F
BLOOMINGTON    SUNNY     61  30  31 N9        30.32F
DECATUR        SUNNY     66  41  40 VRB7      30.30F
PEORIA         SUNNY     62  30  29 W5        30.31F
LACON*         SUNNY     60  34  37 E3        30.31F
LINCOLN*       SUNNY     66  34  30 NW5       30.30F
SPRINGFIELD    SUNNY     67  36  31 NW9       30.31F
TAYLORVILLE    SUNNY     63  41  45 NW5       30.30S
$$

ILZ033-039-045-046-055>057-062-063-182000-
EAST-CENTRAL ILLINOIS

CITY           SKY/WX    TMP DP  RH WIND       PRES   REMARKS
CHAMPAIGN      SUNNY     67  39  35 NW14G20   30.30S
RANTOUL*       SUNNY     66  35  31 NW3       30.31S
MATTOON        SUNNY     67  43  41 MISG      30.29S
PARIS*         SUNNY     68  42  38 N5        30.30S
$$

ILZ079-100>102-182000-
SOUTHWEST ILLINOIS

CITY           SKY/WX    TMP DP  RH WIND       PRES   REMARKS
ALTON          SUNNY     66  39  37 VRB3      30.30F
BELLEVILLE     SUNNY     68  46  44 VRB1      30.28F
CAHOKIA*       SUNNY     68  44  42 E6        30.29F
SPARTA*        SUNNY     64  45  48 NE6       30.29F
$$

ILZ064>066-069>071-074>076-080>082-084>086-088>090-092>094-182000-
SOUTH-CENTRAL ILLINOIS

CITY           SKY/WX    TMP DP  RH WIND       PRES   REMARKS
CARBONDALE     SUNNY     69  42  37 MISG      30.26F
CAIRO*         SUNNY     75  41  29 E5        30.25F
MARION         MOSUNNY   70  41  35 NW9       30.27F
MT. VERNON     MOSUNNY   70  43  37 NE6       30.28F
CENTRALIA*       N/A     67  41  38 CALM      30.28F
SALEM*         SUNNY     68  47  46 NE8       30.29F
METROPOLIS*    MOSUNNY   71  32  23 CALM      30.24F
$$

ILZ067-068-072-073-078-083-087-091-182000-
SOUTHEAST ILLINOIS

CITY           SKY/WX    TMP DP  RH WIND       PRES   REMARKS
FAIRFIELD*     MOSUNNY   70  48  46 N7        30.26F
HARRISBURG*    MOSUNNY   70  42  35 E3        30.27F
ROBINSON*      SUNNY     72  43  35 NW8       30.28F
CARMI*         SUNNY     72  44  36 CALM      30.26F
$$

ABBREVIATIONS USED IN REMARKS
   TC - TEMPERATURE IN CELSIUS
  WCI - WIND CHILL INDEX
   HX - HEAT INDEX
  VSB - VISIBILITY
$$




USA.gov is the U.S. government's official web portal to all federal, state and local government web resources and services.